Regional Weather Roundup
Issued by NWS

Home | Current Version | Previous Version | Graphics & Text | Print | Product List | Glossary On
Versions: 1 2 3 4 5 6 7 8 9 10 11 12 13 14 15 16 17 18 19 20 21 22 23 24 25 26 27 28 29 30 31 32 33 34 35 36 37 38 39 40 41 42 43 44 45 46 47 48 49 50
000
ASUS45 KBOU 230910
RWRCO

WEATHER ROUNDUP FOR COLORADO
NATIONAL WEATHER SERVICE DENVER/BOULDER CO
300 AM MDT MON APR 23 2018

NOTE: "FAIR" INDICATES FEW OR NO CLOUDS BELOW 12000 FEET WITH NO
SIGNIFICANT WEATHER AND/OR OBSTRUCTIONS TO VISIBILITY.

COZ001>005-013-030-031-231000-
...NORTHWEST COLORADO...

CITY           SKY/WX    TMP DP  RH WIND       PRES   REMARKS
CRAIG          FAIR      34  31  88 CALM      30.08S
HAYDEN         FAIR      40  31  70 E10       30.10F
MEEKER         FAIR      37  31  78 NE5       30.09F
RANGELY        PTSUNNY   46  36  69 NE5       30.02R
RABBIT EARS PA FAIR      34  27  75 SE3       30.26S
STEAMBOAT SPGS FAIR      37  29  72 CALM      30.11S
WALDEN         FAIR      30  23  74 CALM      30.18S
$$

COZ006>008-011-231000-
...WEST CENTRAL VALLEYS...

CITY           SKY/WX    TMP DP  RH WIND       PRES   REMARKS
GRAND JUNCTION FAIR      53  32  44 E15       30.01S
MONTROSE       FAIR      46  31  55 SE7       30.09S
EAGLE          FAIR      37  32  82 CALM      30.16F
RIFLE          FAIR      45  38  76 CALM      30.07F
DELTA          FAIR      49  33  53 NE6       30.07S
NUCLA          FAIR      45  28  53 E10       30.12S
$$

COZ017>023-064>068-231000-
...SOUTHWEST COLORADO...

CITY           SKY/WX    TMP DP  RH WIND       PRES   REMARKS
DURANGO        FAIR      40  24  53 N7        30.13S
CORTEZ         FAIR      35  22  58 E6        30.11S WCI  30
PAGOSA SPRINGS FAIR      34  18  52 CALM      30.20R
TELLURIDE      FAIR      38  27  64 SE8       30.26S
WOLF CREEK PAS FAIR      32  12  43 S9        30.40S WCI  24
$$

COZ009-010-012-014-032>034-037-058>063-231000-
...CENTRAL COLORADO...

CITY           SKY/WX    TMP DP  RH WIND       PRES   REMARKS
ASPEN          MOCLDY    40  29  64 SW8       30.15F
BUENA VISTA    FAIR      36  32  86 W5        30.23S
COPPER MTN     NOT AVBL
BERTHOUD PASS  FAIR      27  16  63 W12       30.34F WCI  16
COTTONWOOD PAS FAIR      41  36  81 CALM      30.28F
GUNNISON       FAIR      36  29  75 CALM      30.21R
GRANBY         FAIR      29  26  92 CALM      30.20F
KREMMLING      FAIR      37  34  87 CALM      30.18S
LEADVILLE      CLOUDY    31  30  96 E5        30.26F WCI  26
MONARCH PASS   FAIR      32  23  69 SW12      30.44F WCI  23
SALIDA         FAIR      40  34  78 W3        30.29S
SUNLIGHT       FAIR      32  23  69 SW8       30.31F WCI  25
WILKERSON PASS CLOUDY    32  30  93 SW12      30.33F WCI  23
$$

COZ069>075-231000-
...SAN LUIS VALLEY/SANGRE DE CRISTO MOUNTAINS...

CITY           SKY/WX    TMP DP  RH WIND       PRES   REMARKS
ALAMOSA        FAIR      34  25  69 S5        30.18S WCI  30
DEL NORTE      FAIR      37  24  57 W16       30.20S
LA VETA PASS   FAIR      36  25  64 S16G24    30.39F
SAGUACHE       NOT AVBL
$$

COZ035-036-038>040-231000-
...NORTHERN COLORADO FRONT RANGE...

CITY           SKY/WX    TMP DP  RH WIND       PRES   REMARKS
DENVER INTL AP MOCLDY    42  35  76 SW5       30.09F
AURORA         PTCLDY    45  37  74 S10       30.10S
FRONT RANGE AP FAIR      45  39  79 SE8       30.10S
ERIE MUNI ARPT FAIR      38  35  89 CALM      30.15S
BOULDER MUN AP FAIR      43  36  75 N5        30.09R
CENTENNIAL     FAIR      47  37  68 S13       30.10F
BROOMFIELD     FAIR      46  34  61 CALM      30.10S
FORT COLLINS   FAIR      39  36  89 NE6       30.10F
LONGMONT       FAIR      44  38  78 NE3       30.11S
$$

COZ041-046-047-076>085-087-088-231000-
...PIKES PEAK/PALMER DIVIDE AND SOUTHERN FOOTHILLS...

CITY           SKY/WX    TMP DP  RH WIND       PRES   REMARKS
COLO. SPRINGS  CLOUDY    41  35  79 SE5       30.18F
A. F. ACADEMY  CLOUDY    39  35  83 CALM      30.17F
SCHRIEVER AFB  NOT AVBL
CHEYENNE MTN   MOCLDY    38  34  87 CALM      30.13F
ELLICOTT         N/A    N/A N/A N/A CALM      30.16F
FALCON         FAIR      36  34  92 SW7       30.18F
FORT CARSON    MOCLDY    40  35  81 SE5       30.16F
LIMON          FAIR      34  32  92 SE3       30.16F
MONUMENT HILL  FAIR      36  32  87 SW13      30.17S
CANON CITY     FAIR      43  39  87 CALM      30.16F
WALSENBURG     NOT AVBL
TRINIDAD       FAIR      39  33  79 SW6       30.15F
$$

COZ042>045-048>051-090-091-231000-
...NORTHEAST COLORADO...

CITY           SKY/WX    TMP DP  RH WIND       PRES   REMARKS
GREELEY ARPT   FAIR      35  34  96 N7        30.10F WCI  29
AKRON          FAIR      36  34  92 S10       30.12F
BURLINGTON     FAIR      36  33  89 S12       30.16F
WRAY           FAIR      36  32  87 W3        30.16S
YUMA           FAIR      32  30  93 S6        30.14S WCI  26
STERLING       NOT AVBL
HOLYOKE        FAIR      36  32  87 SW3       30.15F
FORT MORGAN    FAIR      35  33  92 NE3       30.11F
$$

COZ086-089-092>099-231000-
...SOUTHEAST COLORADO...

CITY           SKY/WX    TMP DP  RH WIND       PRES   REMARKS
PUEBLO         FAIR      40  33  76 N9        30.15F
LA JUNTA       FAIR      37  33  85 NE5       30.14F
LAMAR          FAIR      38  33  82 CALM      30.14F
SPRINGFIELD      N/A     33  32  96 SW7       30.16F WCI  27
$$



USA.gov is the U.S. government's official web portal to all federal, state and local government web resources and services.